• In Hungary
  • List of Countries
  • For 7 days
  • Water Temperature
  • Satellite Maps
  • Weather Map
  • News
  • Weather Widgets
  • user-avatar
    Login

    Hourly Weather Thimphu

    Today, 25 February, Sunday

    Time Temperature Precipitation Wind Pressure Humidity
    00:00 +3°C° 0 mm 1 mps 523 mmHg 85%
    01:00 +2°C° 0.1 mm 1 mps 523 mmHg 85%
    02:00 +2°C° 0.1 mm 1 mps 523 mmHg 84%
    03:00 +2°C° 0.1 mm 1 mps 522 mmHg 83%
    04:00 +2°C° 0 mm 1 mps 522 mmHg 83%
    05:00 +1°C° 0 mm 1 mps 522 mmHg 83%
    06:00 +1°C° 0 mm 1 mps 522 mmHg 82%
    07:00 +3°C° 0 mm 1 mps 523 mmHg 73%
    08:00 +5°C° 0 mm 1 mps 524 mmHg 64%
    09:00 +7°C° 0 mm 1 mps 526 mmHg 55%
    10:00 +8°C° 0 mm 1 mps 526 mmHg 55%
    11:00 +8°C° 0 mm 2 mps 526 mmHg 55%
    12:00 +8°C° 0 mm 2 mps 526 mmHg 55%
    13:00 +8°C° 0.2 mm 2 mps 526 mmHg 58%
    14:00 +8°C° 0.2 mm 2 mps 525 mmHg 61%
    15:00 +7°C° 0.2 mm 3 mps 524 mmHg 64%
    16:00 +6°C° 0.2 mm 2 mps 523 mmHg 72%
    17:00 +5°C° 0.2 mm 2 mps 522 mmHg 80%
    18:00 +4°C° 0.2 mm 1 mps 522 mmHg 88%
    19:00 +4°C° 0.3 mm 1 mps 522 mmHg 88%
    20:00 +4°C° 0.3 mm 1 mps 522 mmHg 88%
    21:00 +4°C° 0.3 mm 1 mps 522 mmHg 88%
    22:00 +3°C° 0.2 mm 1 mps 522 mmHg 88%
    23:00 +3°C° 0.2 mm 1 mps 522 mmHg 87%

    Tomorrow, 26 February, Monday

    Time Temperature Precipitation Wind Pressure Humidity
    00:00 +3°C° 0.2 mm 1 mps 521 mmHg 87%
    01:00 +2°C° 0 mm 1 mps 521 mmHg 87%
    02:00 +2°C° 0 mm 1 mps 520 mmHg 86%
    03:00 +1°C° 0 mm 1 mps 520 mmHg 86%
    04:00 +1°C° 0 mm 1 mps 520 mmHg 83%
    05:00 -2°C° 0 mm 2 mps 519 mmHg 80%
    06:00 -2°C° 0 mm 2 mps 519 mmHg 77%
    07:00 +2°C° 0 mm 1 mps 521 mmHg 69%
    08:00 +4°C° 0 mm 1 mps 523 mmHg 61%
    09:00 +7°C° 0 mm 1 mps 525 mmHg 52%
    10:00 +8°C° 0 mm 1 mps 525 mmHg 51%
    11:00 +8°C° 0 mm 2 mps 525 mmHg 50%
    12:00 +9°C° 0 mm 2 mps 526 mmHg 49%
    13:00 +8°C° 0.1 mm 2 mps 525 mmHg 52%
    14:00 +8°C° 0.1 mm 2 mps 524 mmHg 55%
    15:00 +8°C° 0.1 mm 2 mps 524 mmHg 57%
    16:00 +6°C° 0.1 mm 2 mps 523 mmHg 65%
    17:00 +6°C° 0.1 mm 1 mps 522 mmHg 73%
    18:00 +4°C° 0.1 mm 1 mps 521 mmHg 81%
    19:00 +4°C° 0 mm 1 mps 522 mmHg 77%
    20:00 +2°C° 0 mm 2 mps 522 mmHg 73%
    21:00 +1°C° 0 mm 2 mps 522 mmHg 69%
    22:00 +1°C° 0 mm 2 mps 522 mmHg 66%
    23:00 +1°C° 0 mm 2 mps 522 mmHg 63%

    Day after tomorrow, 27 February, Tuesday

    Time Temperature Precipitation Wind Pressure Humidity
    00:00 -1°C° 0 mm 2 mps 522 mmHg 60%
    01:00 -1°C° 0 mm 2 mps 521 mmHg 57%
    02:00 -1°C° 0 mm 3 mps 521 mmHg 54%
    03:00 -1°C° 0 mm 3 mps 521 mmHg 51%
    04:00 -1°C° 0 mm 3 mps 521 mmHg 49%
    05:00 -2°C° 0 mm 3 mps 521 mmHg 47%
    06:00 -2°C° 0 mm 3 mps 521 mmHg 45%
    07:00 +3°C° 0 mm 2 mps 523 mmHg 41%
    08:00 +6°C° 0 mm 2 mps 526 mmHg 37%
    09:00 +10°C° 0 mm 1 mps 528 mmHg 34%
    10:00 +11°C° 0 mm 1 mps 528 mmHg 33%
    11:00 +13°C° 0 mm 2 mps 529 mmHg 33%
    12:00 +14°C° 0 mm 2 mps 529 mmHg 32%
    13:00 +13°C° 0 mm 2 mps 528 mmHg 36%
    14:00 +13°C° 0 mm 2 mps 527 mmHg 41%
    15:00 +13°C° 0 mm 2 mps 527 mmHg 45%
    16:00 +9°C° 0 mm 2 mps 525 mmHg 57%
    17:00 +8°C° 0 mm 1 mps 524 mmHg 69%
    18:00 +5°C° 0 mm 1 mps 522 mmHg 81%
    19:00 +5°C° 0 mm 1 mps 523 mmHg 79%
    20:00 +5°C° 0 mm 1 mps 523 mmHg 78%
    21:00 +4°C° 0 mm 1 mps 523 mmHg 76%
    22:00 +4°C° 0 mm 1 mps 523 mmHg 74%
    23:00 +4°C° 0 mm 1 mps 523 mmHg 73%

    28 February, Wednesday

    Time Temperature Precipitation Wind Pressure Humidity
    00:00 +3°C° 0 mm 1 mps 522 mmHg 71%
    01:00 +2°C° 0 mm 2 mps 522 mmHg 69%
    02:00 +2°C° 0 mm 2 mps 521 mmHg 66%
    03:00 +1°C° 0 mm 2 mps 521 mmHg 64%
    04:00 +1°C° 0 mm 2 mps 521 mmHg 62%
    05:00 +1°C° 0 mm 2 mps 521 mmHg 60%
    06:00 +1°C° 0 mm 2 mps 520 mmHg 58%
    07:00 +4°C° 0 mm 1 mps 523 mmHg 53%
    08:00 +7°C° 0 mm 1 mps 525 mmHg 48%
    09:00 +10°C° 0 mm 1 mps 527 mmHg 43%
    10:00 +10°C° 0 mm 1 mps 527 mmHg 44%
    11:00 +10°C° 0 mm 2 mps 527 mmHg 45%
    12:00 +12°C° 0 mm 2 mps 527 mmHg 46%
    13:00 +10°C° 0.1 mm 2 mps 526 mmHg 51%
    14:00 +10°C° 0.1 mm 2 mps 525 mmHg 55%
    15:00 +9°C° 0.1 mm 3 mps 524 mmHg 60%
    16:00 +8°C° 0.1 mm 2 mps 523 mmHg 69%
    17:00 +6°C° 0.1 mm 2 mps 522 mmHg 78%
    18:00 +6°C° 0.1 mm 1 mps 521 mmHg 87%
    19:00 +5°C° 0 mm 1 mps 521 mmHg 88%
    20:00 +5°C° 0 mm 1 mps 522 mmHg 89%
    21:00 +5°C° 0 mm 1 mps 522 mmHg 90%
    22:00 +4°C° 0 mm 1 mps 522 mmHg 88%
    23:00 +4°C° 0 mm 1 mps 522 mmHg 87%

    1 March, Thursday

    Time Temperature Precipitation Wind Pressure Humidity
    00:00 +4°C° 0 mm 1 mps 521 mmHg 85%
    01:00 +3°C° 0 mm 1 mps 521 mmHg 84%
    02:00 +3°C° 0 mm 1 mps 521 mmHg 82%
    03:00 +3°C° 0 mm 1 mps 520 mmHg 81%
    04:00 +3°C° 0 mm 1 mps 520 mmHg 79%
    05:00 +2°C° 0 mm 1 mps 520 mmHg 77%
    06:00 +2°C° 0 mm 1 mps 520 mmHg 76%
    07:00 +5°C° 0 mm 1 mps 522 mmHg 68%
    08:00 +7°C° 0 mm 1 mps 524 mmHg 61%
    09:00 +9°C° 0 mm 1 mps 525 mmHg 54%
    10:00 +10°C° 0 mm 1 mps 525 mmHg 54%
    11:00 +9°C° 0 mm 2 mps 525 mmHg 54%
    12:00 +10°C° 0 mm 2 mps 525 mmHg 54%
    13:00 +9°C° 0.1 mm 2 mps 524 mmHg 57%
    14:00 +9°C° 0.1 mm 3 mps 523 mmHg 61%
    15:00 +9°C° 0.1 mm 3 mps 523 mmHg 64%
    16:00 +8°C° 0.2 mm 2 mps 522 mmHg 71%
    17:00 +6°C° 0.2 mm 2 mps 521 mmHg 79%
    18:00 +6°C° 0.2 mm 1 mps 520 mmHg 87%
    19:00 +6°C° 0.1 mm 1 mps 521 mmHg 88%
    20:00 +5°C° 0.1 mm 1 mps 521 mmHg 88%
    21:00 +5°C° 0.1 mm 1 mps 521 mmHg 89%
    22:00 +5°C° 0.2 mm 1 mps 521 mmHg 89%
    23:00 +5°C° 0.2 mm 1 mps 521 mmHg 89%

    2 March, Friday

    Time Temperature Precipitation Wind Pressure Humidity
    00:00 +4°C° 0.2 mm 1 mps 521 mmHg 88%
    01:00 +4°C° 0.1 mm 1 mps 520 mmHg 88%
    02:00 +4°C° 0.1 mm 1 mps 520 mmHg 87%
    03:00 +4°C° 0.1 mm 1 mps 520 mmHg 87%
    04:00 +3°C° 0.1 mm 1 mps 520 mmHg 87%
    05:00 +3°C° 0.1 mm 1 mps 520 mmHg 86%
    06:00 +3°C° 0.1 mm 1 mps 520 mmHg 86%
    07:00 +5°C° 0 mm 1 mps 521 mmHg 79%
    08:00 +6°C° 0 mm 1 mps 522 mmHg 72%
    09:00 +8°C° 0 mm 1 mps 524 mmHg 65%
    10:00 +8°C° 0.1 mm 2 mps 524 mmHg 63%
    11:00 +8°C° 0.1 mm 2 mps 524 mmHg 61%
    12:00 +9°C° 0.1 mm 2 mps 524 mmHg 59%
    13:00 +9°C° 0.2 mm 2 mps 523 mmHg 61%
    14:00 +8°C° 0.2 mm 3 mps 522 mmHg 64%
    15:00 +8°C° 0.2 mm 3 mps 521 mmHg 66%
    16:00 +7°C° 0.3 mm 2 mps 520 mmHg 73%
    17:00 +6°C° 0.3 mm 2 mps 520 mmHg 79%
    18:00 +4°C° 0.3 mm 2 mps 519 mmHg 86%
    19:00 +4°C° 0.5 mm 2 mps 519 mmHg 87%
    20:00 +4°C° 0.5 mm 2 mps 519 mmHg 88%
    21:00 +4°C° 0.5 mm 1 mps 519 mmHg 88%
    22:00 +4°C° 0.5 mm 1 mps 519 mmHg 88%
    23:00 +4°C° 0.5 mm 1 mps 519 mmHg 89%
    Show more